www.pogodaiklimat.ru

Погода и климат >> Архив погоды >> Гана >> Ва


ПОГОДА в Ва

  • Прогноз погоды в Ва
  • Монитор погоды в Ва

АРХИВ ПОГОДЫ в Ва

Время (UTC), дата Ветер
(напр.,м/с)
 
Видим.   Явления Облачность Т
(С)
Тd
(С)
f
(%)
Тe
(С)
Тes
(С)
Комфортность P
(гПа)
Po
(гПа)
Тmin
(С)
Tmax
(С)
R
(мм)
R24
(мм)
S
(см)
09 12.08 ЮЗ 3 12 км 9/9 360 м
[Cu Sc]
+26.2 +22.7 81 +35 +36 очень
душно
1016.2 979.4
12 12.08 З 3 17 км 8/5 450 м
[Cu Sc Ac trans]
+27.8 +22.0 71 +36 +42 очень
душно
1015.2 978.6
15 12.08 ЮЗ 3 12 км 8/8 360 м
[Cu Sc]
+31.0 +22.7 61 +41 +43 опасность
перегрева
1011.3 975.3
18 12.08 ЮЗ 2 12 км 6/3 480 м
[Cu med, cong Ci sp]
+30.5 +22.3 62 +40 +40 очень
душно
1010.6 974.5 +31.5
21 12.08 ЮЗ 2 12 км 4/0
[Ci sp]
+28.0 +23.2 75 +38 +38 очень
душно
1012.4 976.0
00 13.08 ЮЗ 2 12 км 4/0
[Ci sp]
+26.1 +23.2 84 +35 +35 очень
душно
1013.2 976.5
06 13.08 ЮЗ 2 12 км 4/0
[Ci sp]
+23.5 +22.2 92 +30 +30 очень
душно
1012.4 975.4 +23.0
09 13.08 ЮЗ 2 12 км 6/6 360 м
[Cu Sc]
+27.0 +23.1 79 +36 +40 очень
душно
1014.7 978.1
12 13.08 ЮЗ 3 12 км 8/8 400 м
[Cu Sc]
+31.5 +24.1 65 +43 +47 опасность
перегрева
1012.7 976.7
18 13.08 ЮВ 1 12 км 9/4 480 м
[Cb cap Cs]
+31.0 +24.2 67 +43 +43 опасность
перегрева
1009.7 973.7 +32.5
21 13.08 ЮЗ 3 8000 м гроза, ливневой дождь 9/6 300 м
[Cb cap Ac As]
+25.2 +23.5 90 +34 +34 очень
душно
1012.5 975.7
00 14.08 ЮЗ 1 12 км {гроза, дождь} 9/3 360 м
[Sc Cs]
+25.0 +23.6 92 +34 +34 очень
душно
1012.8 976.0 26
03 14.08 ЮЗ 1 12 км 9/0
[Cs]
+24.5 +23.3 93 +33 +33 очень
душно
1012.4 975.5
06 14.08 ЮЗ 2 12 км 9/6 360 м
[Sc Cs]
+24.4 +23.0 92 +32 +32 очень
душно
1013.5 976.6 +23.0 26
09 14.08 ЮЗ 3 12 км 9/9 360 м
[Sc]
+25.2 +22.4 84 +33 +34 очень
душно
1016.4 979.5
12 14.08 ЮЗ 4 12 км 9/9 360 м
[Sc]
+26.0 +22.6 82 +34 +36 очень
душно
1015.5 978.7
15 14.08 ЮЗ 4 12 км 8/8 360 м
[Cu Sc]
+29.6 +23.3 69 +40 +42 очень
душно
1012.3 976.1
18 14.08 штиль 0 12 км в посл. час дождь 8/8 360 м
[Cb cap Ci sp]
+25.9 +24.5 92 +36 +36 очень
душно
1012.4 975.7 +30.2 14
21 14.08 З 3 12 км {дождь} 9/4 360 м
[Sc Ac trans]
+25.5 +23.7 90 +35 +35 очень
душно
1014.5 977.7
00 15.08 ЮЗ 2 12 км {дождь} 9/3 360 м
[Sc Ac trans]
+25.0 +23.6 92 +34 +34 очень
душно
1015.0 978.1 0.0
03 15.08 ЮЗ 2 12 км 9/0
[Ac trans]
+24.5 +23.1 92 +33 +33 очень
душно
1013.9 977.0
06 15.08 ЮВ 2 12 км 9/4 360 м
[Sc Ac trans]
+24.0 +23.3 96 +32 +32 очень
душно
1014.6 977.6 +23.5 14
09 15.08 ЮЗ 2 12 км 9/9 360 м
[Sc]
+24.8 +23.0 90 +33 +34 очень
душно
1016.0 979.0
12 15.08 ЮЗ 2 12 км 9/9 360 м
[Sc]
+27.5 +23.4 78 +37 +39 очень
душно
1015.8 979.2
15 15.08 СЗ 1 14 км 8/8 480 м
[Cu hum]
+30.0 +23.1 67 +40 +43 очень
душно
1013.1 976.9
18 15.08 ЮЗ 2 12 км 8/5 480 м
[Cu hum Cs]
+30.2 +23.1 66 +40 +41 очень
душно
1012.0 975.8 +31.0
21 15.08 штиль 0 12 км 8/0
[Cs]
+26.9 +23.6 82 +37 +37 очень
душно
1013.6 977.0
00 16.08 штиль 0 12 км 8/0
[Ac trans Cs]
+26.1 +23.8 87 +36 +36 очень
душно
1014.5 977.8
03 16.08 штиль 0 12 км 9/0
[Ac trans Cs]
+25.5 +22.7 85 +34 +34 очень
душно
1013.2 976.4
06 16.08 ЮЗ 2 12 км 8/0
[Ac trans Cs]
+24.5 +22.4 88 +32 +32 очень
душно
1013.8 976.9 +23.5
09 16.08 ЮЗ 2 12 км 9/3 480 м
[Cu med, cong Ac trans Cs]
+27.0 +22.8 78 +36 +40 очень
душно
1015.1 978.4
12 16.08 ЮЗ 3 12 км 9/9 400 м
[Cu Sc]
+29.5 +23.3 69 +40 +41 очень
душно
1013.6 977.3
15 16.08 ЮЗ 3 12 км 9/9 400 м
[Cu Sc]
+30.0 +23.1 67 +40 +41 очень
душно
1011.9 975.7
18 16.08 ЮЗ 2 12 км 9/0
[Cs]
+30.2 +22.8 65 +40 +40 очень
душно
1010.7 974.6 +30.5
00 17.08 ЮЗ 3 10 км гроза, ливневой дождь 9/9 300 м
[Cb cap]
+22.5 +21.8 96 +30 +30 очень
душно
1016.3 979.1 19
03 17.08 ЮВ 2 8000 м дождь {гроза} 9/9 300 м
[Sc]
+21.5 +19.3 87 +26 +26 душно 1013.6 976.3
06 17.08 ЮЗ 2 12 км {гроза, дождь} 9/9 330 м
[Sc]
+22.0 +21.3 96 +29 +29 очень
душно
1013.3 976.1 +20.5 33
09 17.08 ЮЗ 0 12 км 9/8 330 м
[Sc Ac trans Ci sp]
+24.0 +21.9 88 +31 +33 очень
душно
1015.0 978.0
12 17.08 Ю 3 12 км 9/8 360 м
[Cu Sc Ac trans Ci sp]
+28.0 +22.4 72 +37 +40 очень
душно
1013.9 977.4
15 17.08 ЮЗ 2 12 км 9/8 360 м
[Cu Sc Ac trans]
+30.0 +21.6 61 +38 +40 очень
душно
1010.9 974.8
18 17.08 ЮВ 2 12 км 5/4 480 м
[Cu med, cong Ci sp]
+29.5 +21.8 63 +38 +38 очень
душно
1009.7 973.5 +30.0
21 17.08 штиль 0 12 км 6/0
[Ac trans Ci sp]
+27.5 +22.6 75 +36 +36 очень
душно
1012.4 975.9
00 18.08 З 2 12 км 8/0
[Ac trans]
+24.8 +23.0 90 +33 +33 очень
душно
1013.1 976.3
03 18.08 ЮЗ 2 12 км 9/0
[Ac trans]
+24.5 +23.1 92 +33 +33 очень
душно
1010.7 973.9
06 18.08 штиль 0 12 км 5/0
[Ac trans]
+24.0 +22.9 94 +32 +32 очень
душно
1012.2 975.3 +23.5
12 18.08 ЮЗ 5 12 км 9/9 360 м
[Cu Sc]
+29.3 +23.1 69 +39 +40 очень
душно
1013.0 976.7
15 18.08 ЮЗ 2 12 км 9/6 360 м
[Cu Sc Cs]
+31.0 +22.7 61 +41 +45 опасность
перегрева
1010.6 974.6
18 18.08 ЮЗ 1 12 км 9/3 480 м
[Cu med, cong Cs]
+30.2 +22.3 63 +39 +39 очень
душно
1009.3 973.2 +31.0
21 18.08 штиль 0 12 км 9/4 360 м
[Sc Cs]
+28.0 +23.9 78 +39 +39 очень
душно
1010.2 973.8
00 19.08 ЮВ 2 12 км 9/6 360 м
[Sc Ac trans]
+27.5 +23.4 78 +37 +37 очень
душно
1012.8 976.3
03 19.08 ЮВ 2 12 км 9/0
[Ac trans Cs]
+26.0 +23.2 85 +35 +35 очень
душно
1011.8 975.1
06 19.08 ЮЗ 2 12 км 9/6 360 м
[Sc Ac trans]
+25.5 +22.7 85 +34 +34 очень
душно
1012.4 975.7 +24.5

 

Местоположение метеостанции Ва (Гана): широта 10.05 долгота -2.50 высота над уровнем моря 323 м.

В архиве по умолчанию представлена погода в Ва за последнюю неделю. Архивные данные за месяц целиком и за предыдущие месяцы, начиная с января 2011 года, Вы можете получить, выбрав интересующий диапазон дат из раскрывающегося списка и нажав кнопку "Ввод!".


*Определитесь, кто Вы:
робот инопланетянин человек

Внимание! Время в таблицах - всемирное. Для получения местного времени необходимо прибавить поправку, которая равна 1 ч.

Смотрите также архив погоды в соседних городах и на ближайших метеорологических станциях:

Погода в Гауа (Буркина-Фасо) (81 км)
Погода в Боле (Гана) (113 км)
Погода в Навронго (Гана) (180 км)
Погода в Тамале (Гана) (191 км)
Погода в По (Буркина-Фасо) (192 км)
Погода в Боромо (Буркина-Фасо) (195 км)
Погода в Бондуку (Кот-д'Ивуар) (225 км)
Погода в Бобо-Диуласо (Буркина-Фасо) (235 км)
Погода в Уэнчи (Гана) (260 км)
Погода в Уагадугу (Буркина-Фасо) (277 км)

Пояснения к столбцам:

Ветер - указаны скорость ветра в м/с - средняя за 10 мин, порывы в срок и между сроками (в фигурных скобках) и направление, откуда дует ветер: С - северный, СВ - северо-восточный, В - восточный, ЮВ - юго-восточный, Ю - южный, ЮЗ - юго-западный, З - западный, СЗ - северо-западный.
Видимость - горизонтальная дальность видимости в метрах или километрах. При видимости от 1 до 10 км при отсутствии осадков обычно наблюдается дымка, при ухудшении видимости до 1 км и менее - туман. В сухую погоду видимость может ухудшаться дымом, пылью или мглою.
Явления - указаны атмосферные явления, наблюдавшиеся в срок или в последний час перед сроком; фигурными скобками обозначены явления, наблюдавшиеся между сроками (за 1-3 часа до срока); квадратными скобками обозначены град или гололедные отложения с указанием их диаметра в мм.
Облачность - указаны через наклонную черту общая и нижняя облачность в баллах и высота нижней границы облаков в метрах; квадратными скобками обозначены формы облаков: Ci - перистые, Cs - перисто-слоистые, Cc - перисто-кучевые, Ac - высококучевые, As - высокослоистые, Sc - слоисто-кучевые, Ns - слоисто-дождевые, Cu - кучевые, Cb - кучево-дождевые. Подробнее классификацию облаков см. в Атласе облаков (PDF).
T - Температура воздуха - температура, измеренная на высоте 2 м над землей.
Td - Температура точки росы - температура, при понижении до которой содержащийся в воздухе водяной пар достигнет насыщения.
f - Относительная влажность воздуха - влажноcть воздуха, измеренная на высоте 2 м над землей.
Te - Эффективная температура - температура, которую ощущает одетый по сезону человек в тени. Характеристика душности погоды. При расчете учитывается влияние влажности воздуха и скорости ветра на теплоощущения человека.
Tes - Эффективная температура на солнце - температура, которую ощущает человек, с поправкой на солнечный нагрев. Характеристика знойности погоды. Зависит от высоты солнца над горизонтом, облачности и скорости ветра. Ночью, в пасмурную погоду, а также при ветре 12 м/с и более поправка равна нулю.
P - Атмосферное давление - приведенное к уровню моря атмосферное давление.
Po - Атмосферное давление - измеренное на уровне метеостанции атмосферное давление.
Tmin - Минимальная температура - минимум температуры воздуха на высоте 2 м над землей.
Tmax - Максимальная температура - максимум температуры воздуха на высоте 2 м над землей.
R - Количество осадков - Количество выпавших осадков за период времени, мм. При наведении курсора мыши на число - период времени, за который выпало указанное количество осадков.
R24 - Количество осадков - Количество выпавших осадков за 24 часа, мм.
S - Снежный покров - Высота снежного покрова, см. При наведении курсора мыши на число - состояние снежного покрова и степень покрытия местности в баллах.